Grand Marais, MN

4:19 AM CDT on August 17, 2017 (GMT -0500)
Grand Marais

Weather History for KGNA - June, 2014

Change the Weather History Date:

Tuesday, June 10, 2014

  Actual Average (KCKC) Record (KCKC)
Temperature  
Mean Temperature 48 °F -  
Max Temperature 55 °F 64 °F 82 °F (2017)
Min Temperature 42 °F 44 °F 33 °F (2006)
Degree Days  
Heating Degree Days 18    
Moisture  
Dew Point 40 °F    
Average Humidity 77    
Maximum Humidity 93    
Minimum Humidity 61    
Precipitation  
Precipitation 0.00 in - - ()
Sea Level Pressure  
Sea Level Pressure 30.01 in    
Wind  
Wind Speed 3 mph (NE)    
Max Wind Speed 9 mph    
Max Gust Speed -    
Averages and records for this station are not official NWS values.
T = Trace of Precipitation, MM = Missing Value Source: NWS Daily Summary

Daily Weather History Graph

Daily Weather History Graph

Search for Another Location

Airport or City:

Trip Planner

Search our weather history database for the weather conditions in past years. The results will help you decide how hot, cold, wet, or windy it might be!

Date:

Astronomy

Jun. 10, 2014 Rise Set
Actual Time 5:03 AM CDT 8:58 PM CDT
Civil Twilight 4:22 AM CDT 9:39 PM CDT
Nautical Twilight 3:26 AM CDT 10:35 PM CDT
Astronomical Twilight 1:59 AM CDT 12:03 AM CDT
Moon 6:14 PM CDT (6/10) 3:21 AM CDT (6/10)
Length of Visible Light 17h 16m
Length of Day
15h 55m
Waxing Gibbous, 92% of the Moon is Illuminated
Jun 10
Waxing Gibbous
Jun 12
Full
Jun 19
Last Quarter
Jun 27
New
Jul 5
First Quarter

Hourly Weather History & Observations

Time (CDT) Temp. Windchill Dew Point Humidity Pressure Visibility Wind Dir Wind Speed Gust Speed Precip Events Conditions
12:56 AM 43.0 °F 41.3 °F 39.0 °F 86% 30.03 in - NNW 3.5 mph - N/A   Unknown
1:56 AM 42.1 °F - 39.9 °F 92% 30.02 in - Calm Calm - N/A   Unknown
2:56 AM 43.0 °F 41.3 °F 41.0 °F 93% 30.02 in - NNW 3.5 mph - N/A   Unknown
3:56 AM 43.0 °F - 41.0 °F 93% 30.02 in - Calm Calm - N/A   Unknown
4:56 AM 42.1 °F - 39.0 °F 89% 30.03 in - Calm Calm - N/A   Unknown
5:56 AM 45.0 °F 43.5 °F 42.1 °F 90% 30.04 in - NNE 3.5 mph - N/A   Unknown
6:56 AM 44.1 °F 42.5 °F 39.9 °F 85% 30.04 in - ENE 3.5 mph - N/A   Unknown
7:56 AM 45.0 °F 42.6 °F 39.0 °F 80% 30.05 in - ENE 4.6 mph - N/A   Unknown
8:56 AM 46.0 °F 41.4 °F 37.0 °F 71% 30.06 in - ENE 9.2 mph - N/A   Unknown
9:56 AM 46.0 °F 42.5 °F 37.9 °F 73% 30.05 in - ENE 6.9 mph - N/A   Unknown
10:56 AM 46.9 °F - 37.9 °F 71% 30.05 in - NE 6.9 mph - N/A   Unknown
12:56 PM 50.0 °F - 39.0 °F 66% 30.04 in - ENE 5.8 mph - N/A   Unknown
1:56 PM 48.9 °F - 39.0 °F 69% 30.03 in - ENE 5.8 mph - N/A   Unknown
2:56 PM 50.0 °F - 39.0 °F 66% 30.02 in - ENE 5.8 mph - N/A   Unknown
3:56 PM 52.0 °F - 39.0 °F 61% 30.00 in - ENE 4.6 mph - N/A   Unknown
4:56 PM 52.0 °F - 39.0 °F 61% 30.00 in - ENE 5.8 mph - N/A   Unknown
5:56 PM 48.9 °F - 39.0 °F 69% 29.98 in - ENE 5.8 mph - N/A   Unknown
6:00 PM - - - N/A% - - North - - N/A   Unknown
6:56 PM 52.0 °F - 39.0 °F 61% 29.97 in - ENE 5.8 mph - N/A   Unknown
7:56 PM 53.1 °F - 41.0 °F 64% 29.96 in - Calm Calm - N/A   Unknown
8:56 PM 53.1 °F - 46.0 °F 77% 29.95 in - NNE 3.5 mph - N/A   Unknown
9:56 PM 50.0 °F - 45.0 °F 83% 29.95 in - Calm Calm - N/A   Unknown
10:56 PM 46.9 °F - 42.1 °F 83% 29.95 in - Calm Calm - N/A   Unknown
11:56 PM 44.1 °F - 41.0 °F 89% 29.94 in - Calm Calm - N/A   Unknown